| time (UTC) | temp F | wind direction | speed MPH | gust MPH | rain 1hr in | rain 24hr in | rain mn in | humidity % | barometer mb |
| 20260503233055 | 55 | 103 | 0.0 | 5.0 | 0.00 | 0.00 | 0.00 | 45 | 1011.0 |
| 20260503231600 | 56 | 355 | 3.0 | 11.0 | 0.00 | 0.00 | 0.00 | 43 | 1010.9 |
| 20260503230059 | 57 | 9 | 4.0 | 15.0 | 0.00 | 0.00 | 0.00 | 42 | 1011.1 |
| 20260503224558 | 58 | 159 | 5.0 | 14.0 | 0.00 | 0.00 | 0.00 | 40 | 1011.1 |
| 20260503223057 | 58 | 17 | 2.0 | 5.0 | 0.00 | 0.00 | 0.00 | 43 | 1011.2 |
| 20260503221556 | 57 | 24 | 2.0 | 12.0 | 0.00 | 0.00 | 0.00 | 44 | 1011.2 |
| 20260503214559 | 59 | 135 | 5.0 | 14.0 | 0.00 | 0.00 | 0.00 | 40 | 1011.1 |
| 20260503213133 | 58 | 74 | 2.0 | 12.0 | 0.00 | 0.00 | 0.00 | 42 | 1011.0 |
| 20260503211621 | 59 | 300 | 6.0 | 19.0 | 0.00 | 0.00 | 0.00 | 40 | 1010.9 |
| 20260503210100 | 59 | 244 | 3.0 | 10.0 | 0.00 | 0.00 | 0.00 | 41 | 1011.1 |
| 20260503204619 | 58 | 157 | 3.0 | 16.0 | 0.00 | 0.00 | 0.00 | 41 | 1011.2 |
| 20260503203109 | 57 | 334 | 3.0 | 11.0 | 0.00 | 0.00 | 0.00 | 41 | 1011.3 |
| 20260503201559 | 57 | 355 | 3.0 | 10.0 | 0.00 | 0.00 | 0.00 | 45 | 1011.4 |
| 20260503200059 | 58 | 19 | 3.0 | 16.0 | 0.00 | 0.00 | 0.00 | 45 | 1011.7 |
| 20260503194557 | 57 | 360 | 2.0 | 9.0 | 0.00 | 0.00 | 0.00 | 47 | 1011.9 |
| 20260503193059 | 56 | 37 | 3.0 | 13.0 | 0.00 | 0.00 | 0.00 | 45 | 1012.2 |
| 20260503191605 | 56 | 329 | 3.0 | 12.0 | 0.00 | 0.00 | 0.00 | 47 | 1012.4 |
| 20260503190057 | 56 | 337 | 4.0 | 11.0 | 0.00 | 0.00 | 0.00 | 46 | 1012.6 |
| 20260503184634 | 56 | 40 | 4.0 | 11.0 | 0.00 | 0.00 | 0.00 | 45 | 1012.8 |
| 20260503183107 | 56 | 343 | 4.0 | 10.0 | 0.00 | 0.00 | 0.00 | 43 | 1012.9 |
| 20260503181556 | 56 | 41 | 3.0 | 11.0 | 0.00 | 0.00 | 0.00 | 45 | 1013.0 |
| 20260503180058 | 56 | 350 | 6.0 | 12.0 | 0.00 | 0.00 | 0.00 | 46 | 1013.2 |
| 20260503174616 | 56 | 344 | 2.0 | 12.0 | 0.00 | 0.00 | 0.00 | 46 | 1013.4 |
| 20260503173130 | 55 | 30 | 4.0 | 13.0 | 0.00 | 0.00 | 0.00 | 46 | 1013.5 |
| 20260503171559 | 55 | 208 | 2.0 | 16.0 | 0.00 | 0.00 | 0.00 | 46 | 1013.6 |
| 20260503150114 | 50 | 126 | 1.0 | 8.0 | 0.00 | 0.00 | 0.00 | 50 | 1014.5 |
| 20260503100107 | 28 | 0 | 0.0 | 0.0 | 0.00 | 0.01 | 0.00 | 87 | 1014.1 |
| 20260503090106 | 28 | 0 | 0.0 | 0.0 | 0.00 | 0.01 | 0.00 | 85 | 1014.0 |
| 20260503081600 | 28 | 0 | 0.0 | 0.0 | 0.00 | 0.01 | 0.00 | 85 | 1013.9 |
| 20260503071610 | 30 | 0 | 0.0 | 0.0 | 0.00 | 0.01 | 0.00 | 83 | 1013.8 |
| 20260503070114 | 30 | 0 | 0.0 | 0.0 | 0.00 | 0.01 | 0.00 | 82 | 1013.7 |
| 20260503060116 | 33 | 0 | 0.0 | 0.0 | 0.00 | 0.01 | 0.00 | 82 | 1013.9 |
| 20260503054601 | 34 | 0 | 0.0 | 0.0 | 0.00 | 0.01 | 0.00 | 83 | 1013.9 |
| 20260503053058 | 34 | 0 | 0.0 | 0.0 | 0.00 | 0.01 | 0.00 | 83 | 1014.0 |
| 20260503051559 | 34 | 0 | 0.0 | 0.0 | 0.00 | 0.01 | 0.00 | 83 | 1014.0 |
| 20260503044556 | 34 | 0 | 0.0 | 0.0 | 0.00 | 0.01 | 0.00 | 82 | 1014.2 |
| 20260503043059 | 34 | 0 | 0.0 | 0.0 | 0.00 | 0.01 | 0.00 | 82 | 1014.3 |
| 20260503041556 | 34 | 0 | 0.0 | 0.0 | 0.00 | 0.01 | 0.00 | 82 | 1014.2 |
| 20260503040057 | 34 | 0 | 0.0 | 0.0 | 0.00 | 0.01 | 0.00 | 82 | 1014.3 |
| 20260503034557 | 35 | 0 | 0.0 | 0.0 | 0.00 | 0.01 | 0.01 | 81 | 1014.3 |
| 20260503033100 | 35 | 0 | 0.0 | 0.0 | 0.00 | 0.01 | 0.01 | 81 | 1014.3 |
| 20260503031557 | 35 | 0 | 0.0 | 0.0 | 0.00 | 0.01 | 0.01 | 81 | 1014.5 |
| 20260503030058 | 35 | 0 | 0.0 | 0.0 | 0.00 | 0.01 | 0.01 | 80 | 1014.5 |
| 20260503024600 | 35 | 0 | 0.0 | 0.0 | 0.00 | 0.01 | 0.01 | 79 | 1014.6 |
| 20260503023055 | 36 | 0 | 0.0 | 0.0 | 0.00 | 0.01 | 0.01 | 79 | 1014.7 |
| 20260503021558 | 36 | 0 | 0.0 | 0.0 | 0.00 | 0.01 | 0.01 | 79 | 1014.7 |
| 20260503020105 | 37 | 0 | 0.0 | 2.0 | 0.00 | 0.01 | 0.01 | 77 | 1014.7 |
| 20260503014628 | 37 | 0 | 0.0 | 2.0 | 0.00 | 0.01 | 0.01 | 76 | 1014.6 |
| 20260503013058 | 37 | 0 | 0.0 | 2.0 | 0.00 | 0.01 | 0.01 | 76 | 1014.7 |
| 20260503011627 | 37 | 0 | 0.0 | 2.0 | 0.00 | 0.01 | 0.01 | 76 | 1014.5 |
| 20260503010058 | 37 | 130 | 0.0 | 1.0 | 0.00 | 0.01 | 0.01 | 76 | 1014.4 |
| 20260503004607 | 38 | 0 | 0.0 | 1.0 | 0.00 | 0.01 | 0.01 | 76 | 1014.3 |
| 20260503003107 | 39 | 0 | 0.0 | 1.0 | 0.00 | 0.01 | 0.01 | 74 | 1014.0 |
| 20260503001557 | 39 | 0 | 0.0 | 3.0 | 0.00 | 0.01 | 0.01 | 72 | 1013.9 |
| 20260503000105 | 39 | 0 | 0.0 | 2.0 | 0.00 | 0.01 | 0.01 | 71 | 1013.9 |
| 20260502234614 | 40 | 0 | 0.0 | 1.0 | 0.00 | 0.02 | 0.01 | 70 | 1013.9 |